Theta_e
346 345 343 342 343 344 345 346 346 347 348 348 348 349 349 349 349 349 349 349 348 348 349 350 349 349 349 346 346 346 346 347 347 348 348 346 344 344 345 343 339 337 333 329 325 323 322 322 322 321 321 321 321 321 321 319 318 320 319 318 325 335 340 341 340 341 341 341 341 340 339 340 340 341
346 345 343 342 341 343 345 345 345 347 348 348 348 348 349 349 349 350 350 349 349 348 348 349 349 350 349 347 347 346 345 346 348 348 349 348 347 346 347 347 346 345 343 338 334 332 328 325 323 323 324 325 326 326 327 323 324 328 324 322 333 339 339 339 340 340 341 341 341 341 340 339 340 340
346 346 344 342 341 343 345 346 346 347 347 347 347 347 348 349 349 349 350 350 349 348 348 350 350 349 349 349 349 348 346 346 347 347 347 348 348 347 347 348 348 348 347 345 343 341 340 335 330 327 325 325 325 325 327 327 328 333 332 330 335 337 336 338 339 340 341 341 340 341 341 340 340 340
344 344 342 340 339 342 344 345 345 346 346 346 346 347 348 349 348 348 349 349 349 349 349 350 349 349 349 349 349 349 349 348 347 347 347 347 348 348 347 348 348 348 348 348 347 346 346 343 341 337 333 329 326 323 324 326 330 335 337 336 336 334 334 337 340 340 341 340 340 341 341 341 341 340
340 340 339 338 339 342 345 345 345 346 346 346 347 346 347 348 349 348 348 348 349 350 350 350 350 349 350 350 350 350 351 350 349 348 348 347 347 347 347 347 348 348 348 348 348 347 346 346 345 345 342 339 335 330 326 325 328 332 335 337 338 336 336 338 340 340 340 341 341 341 341 341 341 341
340 341 341 339 340 344 346 346 346 346 347 346 345 346 348 348 348 349 349 348 348 349 351 351 350 350 350 351 351 350 350 350 350 350 349 348 348 348 348 348 348 348 348 347 347 346 345 345 346 346 346 344 342 340 336 332 329 328 329 332 334 335 336 338 340 340 340 340 340 340 340 340 340 340
341 344 345 344 342 343 346 347 346 346 346 346 346 348 349 350 350 349 349 349 348 349 351 352 351 350 350 350 350 350 349 349 349 349 349 348 349 349 349 348 348 347 347 346 346 345 345 347 348 346 345 345 344 344 344 342 339 336 331 329 330 331 332 333 335 336 337 337 337 338 339 338 338 338
342 344 345 345 343 343 344 346 346 345 345 346 347 348 349 349 349 350 349 349 350 350 351 353 351 349 349 349 350 350 349 349 349 348 348 349 349 349 349 349 348 347 346 346 346 346 347 350 348 346 346 347 346 345 345 344 344 343 340 337 334 333 331 331 331 331 330 331 331 331 332 333 332 332
344 345 345 345 345 344 343 343 344 344 345 346 347 347 348 348 350 350 350 351 351 351 352 353 352 350 349 349 349 350 349 349 348 348 349 349 349 349 348 348 348 347 346 346 346 346 347 348 347 346 348 349 348 347 346 344 344 345 344 344 342 340 338 337 336 334 333 332 333 333 334 334 334 335
347 347 347 346 346 346 346 345 344 344 345 346 347 347 348 350 351 352 351 351 351 352 353 353 353 351 350 350 349 350 350 349 348 349 350 350 350 350 349 348 348 348 347 347 346 346 346 346 346 347 347 347 347 347 345 346 346 346 346 346 345 344 343 342 341 341 340 340 341 340 341 341 341 341
349 349 349 348 347 347 348 347 347 346 346 346 347 348 348 350 350 351 350 351 351 351 353 353 353 351 351 351 350 350 350 349 349 349 349 349 349 349 349 347 348 348 347 347 346 346 346 345 345 345 344 344 346 346 345 346 347 347 347 347 346 346 345 343 342 342 342 342 343 343 343 343 342 343
349 349 349 348 348 347 348 347 347 347 347 347 348 348 349 349 350 350 349 350 350 350 352 354 353 352 352 351 351 350 349 349 348 347 347 349 349 349 349 348 348 347 346 345 344 344 344 343 343 343 343 343 344 345 346 347 346 346 346 346 345 344 343 343 343 343 342 342 342 342 343 343 342 342
349 349 349 349 349 348 347 347 348 348 347 347 347 347 348 348 348 349 349 349 349 349 352 354 353 352 352 351 350 350 349 347 347 346 346 348 348 348 348 348 347 346 345 344 342 341 341 342 342 342 341 342 343 344 345 345 345 344 344 344 344 344 343 343 343 342 341 340 340 340 341 341 340 340
349 349 349 349 349 349 348 348 348 348 347 347 347 347 348 348 347 347 349 349 350 349 351 352 352 351 351 351 350 349 348 348 348 348 348 349 348 348 347 348 347 345 345 344 343 341 341 342 343 342 340 340 342 342 342 343 344 344 343 342 343 343 342 342 341 339 338 337 336 336 336 336 336 335
350 350 349 349 349 350 350 349 349 349 348 348 348 348 349 349 348 348 349 350 350 349 349 350 351 350 349 349 348 348 348 349 349 349 350 350 349 348 347 347 346 345 345 344 343 341 341 341 342 342 341 340 341 341 341 341 341 341 341 339 340 338 338 337 335 334 333 332 332 331 331 332 331 331
350 350 350 350 350 350 350 350 350 350 349 349 350 350 350 350 350 350 349 350 350 349 349 349 349 349 348 346 346 346 347 348 349 350 350 350 350 349 348 347 347 346 345 344 343 342 341 341 342 342 341 340 340 340 339 338 337 336 335 334 334 333 333 332 330 330 329 328 327 327 327 326 324 324
350 350 350 350 350 350 350 350 350 350 350 350 350 351 351 351 350 351 351 351 351 351 350 349 348 347 346 346 345 346 346 348 349 350 350 349 349 349 348 348 347 347 346 346 345 343 341 341 341 340 339 338 337 336 335 333 331 331 330 329 328 328 328 327 326 326 325 324 323 321 320 318 318 320
351 351 351 351 350 350 350 350 350 350 350 350 350 351 351 351 351 351 351 351 351 351 351 350 348 345 344 345 345 346 347 348 348 348 349 349 349 348 348 348 348 347 347 347 346 344 342 340 339 338 337 334 333 332 330 327 326 326 326 325 324 323 322 321 321 319 318 318 318 316 314 316 319 321
351 351 351 351 351 350 350 350 350 351 350 350 351 351 350 350 351 351 351 350 350 350 350 350 349 346 344 344 344 346 346 347 347 347 347 348 348 348 349 349 347 347 346 346 345 343 341 339 337 336 333 331 329 327 325 324 323 322 321 320 318 315 314 313 313 311 311 312 313 313 313 314 317 317
350 350 351 351 351 351 350 350 350 350 350 350 350 350 350 350 350 351 350 349 350 350 350 350 351 349 347 347 347 347 345 345 346 346 347 348 348 348 349 348 347 346 346 344 343 343 340 337 335 333 330 327 326 324 322 322 320 318 316 314 312 310 310 310 310 309 309 309 309 309 309 310 310 310
350 350 350 351 351 351 350 349 349 349 349 349 349 349 349 349 350 349 350 350 350 350 350 350 351 351 351 350 350 348 346 345 346 346 347 347 347 348 349 348 347 346 345 344 342 341 339 335 333 330 327 324 323 322 321 319 317 314 312 310 310 309 309 309 309 309 309 309 309 309 308 308 307 307
349 350 350 350 350 350 350 349 349 348 348 349 348 348 348 348 348 349 349 350 350 349 350 350 350 350 351 350 349 347 346 346 346 346 346 346 346 348 349 349 347 344 343 343 341 338 335 332 328 326 323 321 321 320 318 316 314 312 310 310 309 310 310 311 311 312 312 312 313 312 312 311 310 308
349 350 349 349 349 349 349 349 349 349 349 349 349 348 348 347 347 347 348 349 350 350 350 350 349 349 349 348 347 347 347 348 348 347 347 348 348 348 348 349 348 343 341 341 338 334 330 326 323 323 321 319 317 315 314 313 312 310 309 309 308 310 312 314 314 314 315 315 316 315 315 314 312 310
349 349 349 349 349 349 349 349 349 349 348 348 348 348 347 347 347 347 348 349 350 350 350 349 348 348 347 346 346 347 348 349 348 347 348 348 348 348 347 347 346 344 343 341 337 332 327 323 321 320 319 316 314 312 311 311 310 309 309 308 309 311 314 315 316 316 316 316 316 316 316 314 313 312
348 348 348 348 348 348 348 347 348 348 348 347 347 347 347 347 348 348 349 349 349 349 349 348 348 347 347 347 348 347 347 347 346 346 346 346 346 346 346 345 343 342 341 337 334 331 326 321 320 320 319 318 315 312 310 310 309 309 309 309 310 312 312 313 314 314 315 315 316 316 316 315 315 314
347 347 347 347 346 346 346 345 345 345 345 345 346 347 348 348 348 348 348 348 348 348 348 348 347 347 347 347 347 346 345 345 346 345 345 345 344 343 343 343 343 341 338 334 331 330 327 323 321 321 321 320 316 312 311 310 309 309 309 310 311 311 310 310 310 310 310 312 314 316 316 316 315 314
345 345 346 345 344 344 343 342 342 342 342 344 345 348 349 348 347 346 345 345 345 346 347 346 346 345 345 345 345 343 343 344 344 344 344 343 343 342 341 340 340 338 337 334 331 329 327 325 323 323 322 319 315 313 312 311 311 311 310 311 313 313 313 312 312 310 308 307 309 313 316 316 316 314
343 343 343 342 342 342 341 340 340 339 340 342 343 344 345 345 345 344 343 343 344 345 346 344 344 344 344 344 343 342 342 343 343 343 343 342 341 341 340 338 336 335 334 333 329 327 327 326 323 321 320 318 316 313 312 312 313 313 312 313 314 314 314 314 313 312 310 308 307 309 312 313 313 311
342 341 341 341 341 341 340 339 338 338 338 339 339 340 340 340 341 341 342 343 343 343 343 342 341 342 342 341 341 340 341 341 340 340 341 340 339 338 337 335 333 331 330 328 326 325 324 323 320 317 315 314 313 312 312 314 315 314 314 315 314 314 314 314 313 312 311 310 308 307 307 308 307 308
341 341 341 340 341 340 339 339 338 338 337 338 338 339 339 339 339 340 340 341 341 341 341 341 340 340 340 340 339 339 339 338 338 338 337 337 336 335 333 331 328 327 326 325 324 323 321 319 316 315 314 313 314 313 313 315 316 316 315 315 314 314 314 313 313 312 311 311 308 306 306 307 307 307
340 340 339 339 339 338 338 337 337 337 337 338 337 338 337 338 338 339 339 339 339 340 340 339 339 338 338 337 337 336 336 335 335 335 335 335 333 331 329 327 325 324 324 323 323 322 320 317 315 315 314 314 315 315 315 316 316 316 316 315 314 314 314 313 313 312 311 311 309 306 306 308 308 308
336 336 336 336 336 336 335 335 335 335 335 334 334 335 334 335 335 336 336 337 338 338 337 337 336 336 336 335 335 335 334 334 333 333 333 331 329 327 325 324 322 322 323 323 322 321 319 317 316 316 316 316 316 316 316 317 317 316 316 315 315 314 314 313 314 313 312 312 309 306 307 309 308 308
331 331 332 332 332 332 332 331 331 331 331 331 331 332 331 331 332 333 334 335 335 335 335 336 335 335 334 333 333 333 333 332 332 331 330 328 326 324 323 321 322 322 322 322 322 321 320 319 319 319 318 318 317 316 316 317 317 316 315 315 315 315 314 313 313 314 313 312 309 306 307 309 309 308
326 327 328 329 329 329 329 329 329 330 330 330 331 331 331 331 331 332 332 333 334 334 334 332 331 330 329 329 330 330 330 330 329 328 327 326 324 324 322 322 322 323 323 322 322 322 321 320 320 319 319 318 318 317 316 316 316 316 316 316 315 315 314 314 314 313 311 309 308 307 308 310 310 310
324 324 325 325 326 326 326 328 328 329 329 330 330 331 331 331 332 332 332 332 331 329 326 324 323 323 323 325 327 328 329 328 327 326 326 326 325 324 323 323 323 322 322 321 321 320 320 320 320 319 319 318 317 317 317 316 315 315 316 316 315 315 314 314 313 311 308 308 308 308 310 310 310 310
324 324 323 322 321 321 322 323 324 326 328 329 330 331 331 331 331 330 329 327 325 323 320 319 319 320 320 323 326 327 327 327 326 326 326 325 324 324 324 323 322 322 321 320 320 320 320 319 319 320 319 318 317 317 317 317 316 316 316 316 315 315 314 314 312 308 307 307 308 309 310 310 309 309
324 322 320 319 318 317 317 317 318 320 322 324 326 328 329 329 329 327 325 323 321 319 318 318 318 319 320 322 325 326 326 326 326 326 326 325 324 324 325 324 323 322 322 321 321 321 320 320 320 320 319 318 318 317 317 317 316 316 315 315 315 314 313 313 310 307 307 308 308 309 310 309 308 309
322 319 318 317 316 316 316 315 315 316 317 317 318 320 321 322 322 321 320 319 318 317 317 317 317 318 319 321 324 326 326 326 326 326 326 325 323 322 323 324 323 322 322 322 322 321 321 320 320 319 319 318 317 317 317 316 315 315 315 314 313 312 312 311 309 307 308 309 309 309 309 309 309 309
322 320 319 318 316 315 315 316 316 317 318 318 318 317 316 316 316 315 316 316 316 316 316 316 317 317 317 318 321 322 324 324 324 324 324 323 321 319 320 322 323 323 322 323 322 321 320 319 319 319 317 315 314 314 314 314 314 314 313 312 312 311 311 311 309 307 308 309 310 310 310 310 309 310
323 323 322 321 318 316 316 316 318 319 320 320 319 318 317 316 314 314 314 314 314 314 314 314 315 316 316 315 316 317 318 319 320 320 319 318 318 317 319 320 322 322 323 323 322 320 318 318 319 317 314 313 313 314 313 313 312 312 311 311 311 311 311 311 309 307 308 310 311 311 311 310 310 309
323 323 323 322 321 318 316 317 319 320 320 320 320 319 318 317 316 314 314 312 312 312 312 313 313 314 313 313 313 313 314 314 314 314 314 314 314 315 318 320 322 322 322 323 323 321 320 319 317 314 312 313 314 314 314 313 312 312 312 311 311 311 311 310 307 306 308 309 310 310 311 310 310 310
323 323 322 322 321 319 317 317 319 320 320 319 319 318 318 317 317 317 317 315 313 312 313 313 312 312 313 314 315 315 315 314 313 313 313 313 312 312 315 318 320 321 322 322 322 322 320 317 314 312 313 314 315 314 314 313 312 311 311 310 309 309 308 306 305 305 306 307 306 307 307 307 306 306
322 322 322 322 322 321 319 319 321 321 321 321 320 320 320 318 316 317 318 317 315 314 315 315 314 315 315 316 317 317 316 316 315 315 314 314 314 312 312 313 314 316 319 321 321 320 317 314 312 313 314 314 314 313 313 313 312 311 311 311 310 309 308 307 307 308 307 306 305 305 304 303 302 302
322 321 322 322 322 322 321 321 321 321 321 322 322 322 321 319 317 315 316 316 316 315 316 316 315 315 315 316 316 316 316 317 317 315 315 316 316 314 313 313 313 314 316 317 316 315 314 313 314 315 314 314 314 313 313 313 312 311 311 311 310 310 309 309 309 309 308 307 306 306 305 304 303 303
323 323 323 323 322 322 322 322 321 321 321 322 322 322 321 320 317 314 313 314 315 316 316 316 316 316 315 315 315 316 316 317 317 316 315 317 317 315 314 315 315 315 315 315 314 314 314 314 315 315 314 314 314 313 312 312 312 311 311 311 311 310 310 309 309 309 309 307 307 306 306 306 305 306
Wind_Speed
12 11 11 11 13 11 10 10 10 10 10 10 11 11 10 10 11 10 10 9 7 6 5 4 4 2 1 1 3 4 3 4 4 4 4 4 4 4 4 5 5 5 5 4 4 3 2 2 3 4 4 5 5 5 6 7 8 8 8 9 11 11 9 9 9 9 9 9 10 11 12 12 12 12
14 14 14 13 13 12 10 11 11 10 10 10 10 10 10 10 11 10 10 9 7 6 5 4 4 2 1 0 2 3 3 3 4 4 3 3 4 4 4 4 4 4 4 4 4 3 3 2 3 4 4 5 5 5 5 5 6 6 7 10 12 10 9 10 10 9 9 10 10 11 11 12 12 12
19 18 18 17 15 12 11 11 11 11 11 11 10 10 11 11 10 9 10 9 7 6 6 5 3 1 2 2 2 1 2 2 3 4 4 4 4 4 3 3 2 2 2 3 3 3 3 2 2 2 3 4 5 5 4 4 5 5 5 7 10 10 11 11 10 9 9 9 10 10 10 11 11 12
24 23 22 20 16 13 13 12 12 13 14 15 12 10 11 11 9 10 10 10 8 6 6 6 4 2 3 4 4 3 2 1 2 3 4 4 4 5 4 4 3 2 2 3 3 2 3 2 2 2 2 2 3 4 4 4 4 4 5 7 9 11 12 12 11 10 9 9 10 10 10 10 11 12
22 22 21 19 16 14 14 13 13 14 14 14 13 11 11 11 11 11 10 10 9 6 5 7 6 4 5 5 5 5 4 3 3 3 4 4 4 4 4 4 3 4 4 4 4 4 4 4 3 3 3 2 3 3 3 5 4 4 7 9 11 13 13 13 11 10 10 9 10 10 10 10 11 11
17 17 17 17 17 16 15 13 12 13 14 13 14 13 11 11 12 12 10 9 9 7 5 6 7 6 6 6 5 6 6 5 5 6 5 4 3 4 4 4 4 5 6 6 7 7 5 4 3 4 4 4 4 4 4 5 6 5 7 9 11 12 12 12 12 11 10 10 10 10 10 11 11 11
16 15 14 15 16 17 18 15 13 14 16 15 14 12 11 10 11 11 11 10 9 8 6 6 7 7 8 8 8 8 8 8 8 7 6 5 5 5 5 5 6 7 7 8 8 6 6 8 6 5 6 5 5 5 6 7 7 7 8 8 9 10 10 11 11 11 11 11 11 12 12 12 12 12
17 16 15 14 14 16 19 20 18 16 16 15 14 13 12 13 12 12 11 10 9 8 8 7 8 8 9 9 9 10 10 10 9 8 6 6 6 7 7 7 7 8 7 8 8 7 10 13 11 8 9 10 8 7 7 8 8 8 9 9 9 10 10 10 10 11 11 12 11 12 12 13 13 13
16 16 16 14 13 13 16 20 20 16 14 14 14 14 14 14 14 13 11 10 10 9 9 10 10 10 9 9 9 10 11 11 11 10 9 8 9 10 10 9 9 9 8 9 10 10 10 12 12 13 14 14 14 13 9 8 9 9 10 11 11 11 11 11 11 11 11 12 12 12 12 13 13 13
16 16 16 15 13 12 13 15 16 14 13 14 15 15 15 14 13 12 12 11 11 10 11 12 12 12 11 10 10 11 12 13 13 12 12 12 12 13 13 12 11 11 11 10 11 11 11 12 13 15 15 15 16 15 12 13 15 13 13 14 14 13 15 15 14 14 14 13 13 12 12 12 12 12
15 16 16 16 14 14 13 13 13 13 13 15 16 16 16 15 15 14 13 12 12 12 13 14 14 13 13 12 12 12 13 14 14 14 14 14 14 15 16 15 13 13 13 12 11 11 12 13 13 14 14 14 14 15 16 19 20 16 16 18 17 16 17 17 17 17 17 16 15 14 13 12 12 14
16 16 17 17 17 18 17 15 15 15 15 15 17 17 17 17 16 16 14 14 14 14 14 15 14 13 14 14 14 14 16 16 16 16 15 15 15 16 16 15 14 14 13 12 11 11 12 12 12 11 11 11 13 15 16 17 18 16 15 16 15 14 15 15 17 18 17 16 16 15 14 12 12 12
18 18 17 17 18 19 20 18 17 17 17 17 18 18 19 19 19 18 17 16 15 15 15 15 15 15 15 15 15 17 17 17 17 17 16 16 17 17 17 16 16 16 14 13 12 11 10 8 8 7 7 8 10 11 12 13 15 15 14 14 13 12 11 12 14 13 11 10 10 10 9 8 8 8
20 18 19 19 17 16 18 18 18 19 19 19 18 17 17 18 19 19 19 18 16 15 15 15 16 16 16 16 16 17 17 17 18 18 18 18 19 19 18 18 19 18 16 14 12 11 9 8 8 7 7 7 8 8 8 9 11 12 12 13 12 10 9 9 9 7 5 4 4 4 4 4 4 4
21 18 19 21 20 18 18 19 20 21 22 21 19 17 16 16 16 18 19 19 18 18 17 16 17 17 17 17 17 17 17 17 19 20 20 20 21 21 21 21 21 20 17 15 13 12 10 10 11 10 9 8 9 9 9 10 10 11 11 11 10 9 8 8 7 6 6 6 6 6 6 6 6 6
25 22 20 20 21 21 21 21 21 20 20 20 19 19 19 18 17 17 18 19 19 20 20 20 20 20 20 19 18 18 17 18 19 21 21 22 23 23 23 24 24 21 18 16 15 14 13 12 12 11 9 9 10 10 9 9 8 8 7 7 8 8 8 8 8 8 9 9 8 7 8 7 6 5
27 26 24 22 22 22 23 23 23 21 20 19 19 20 21 21 20 20 20 20 20 21 22 23 24 24 23 21 20 18 17 17 19 21 22 23 23 24 26 26 25 23 21 19 17 15 15 14 13 12 10 10 11 10 10 9 8 8 7 7 7 7 7 7 7 7 7 7 6 5 6 4 4 5
27 26 26 27 27 25 25 25 24 25 24 23 22 21 21 21 21 22 22 22 22 23 23 24 25 25 24 23 21 18 18 19 20 21 23 23 24 25 26 26 26 24 23 22 19 17 17 16 14 12 12 13 13 12 12 10 9 8 8 7 7 6 4 4 4 3 3 3 3 5 6 7 7 9
26 26 27 28 28 27 27 27 26 25 25 25 24 23 23 23 23 23 24 24 24 24 24 25 25 25 25 25 24 22 22 23 23 23 24 24 24 24 25 27 27 26 26 25 22 19 18 17 16 15 15 15 15 14 13 13 12 11 10 9 7 6 5 5 5 5 5 6 7 8 9 10 10 9
26 26 26 27 27 27 27 27 26 25 25 25 24 23 24 24 24 25 26 26 26 25 25 24 24 25 26 26 25 23 23 25 26 26 26 26 24 25 26 27 28 29 29 27 25 22 21 20 19 18 18 18 17 17 17 17 16 14 12 9 7 7 7 8 9 10 10 10 10 9 9 9 8 8
26 27 27 28 28 28 27 26 25 24 24 23 23 23 24 24 25 26 26 26 27 26 26 26 25 26 27 26 24 22 23 26 26 27 28 28 28 28 28 29 31 31 31 29 28 26 24 24 24 22 22 20 19 20 21 20 18 15 12 10 9 9 10 10 11 11 11 11 10 9 9 8 7 7
23 23 25 26 27 27 26 26 25 25 24 24 24 25 25 25 26 26 25 25 26 26 26 26 26 26 26 26 25 23 24 26 27 27 29 29 30 30 31 31 32 31 31 32 31 28 26 26 27 26 26 24 23 23 23 20 16 14 14 13 12 11 11 11 11 11 11 10 10 10 9 9 8 8
21 21 22 23 24 25 25 25 25 24 25 26 26 25 26 26 26 25 24 24 24 25 25 25 25 26 26 26 27 26 25 25 25 26 27 28 29 30 31 34 34 33 32 33 32 29 27 29 30 29 30 30 26 23 20 17 16 16 16 14 13 12 12 11 12 12 10 9 9 8 9 9 9 9
20 20 21 22 22 23 23 24 24 25 25 26 26 25 25 26 26 25 25 24 24 25 25 25 26 27 28 29 29 27 26 26 25 24 25 26 28 30 33 36 37 35 33 34 34 30 27 31 32 31 31 30 26 21 17 16 16 16 14 13 12 12 11 11 11 11 10 9 8 8 8 8 9 8
16 16 17 17 18 19 20 21 22 23 23 24 23 23 23 24 25 25 24 24 24 25 26 27 28 29 29 30 28 25 25 25 23 20 21 25 27 30 35 37 37 35 32 32 33 31 29 33 33 29 24 21 21 22 19 17 17 15 13 13 12 12 11 10 9 9 8 8 7 7 7 7 7 6
13 13 13 13 14 15 16 18 18 19 18 17 17 17 18 19 21 22 21 21 21 22 23 23 22 22 22 22 22 20 19 19 18 16 18 23 26 26 29 34 35 33 29 27 28 29 29 30 30 25 18 15 20 24 22 20 18 16 15 14 14 13 11 10 9 8 7 7 6 6 7 8 6 4
13 13 13 13 14 14 15 16 16 16 16 15 16 17 17 17 19 20 20 19 18 19 19 19 19 19 20 20 20 18 15 14 13 12 13 20 20 16 18 24 26 25 22 19 20 22 22 23 25 21 15 17 23 25 22 21 21 20 19 18 16 14 12 11 10 9 8 7 7 7 8 9 6 2
16 16 16 16 16 16 16 15 15 16 17 17 19 20 21 21 22 22 22 21 20 20 20 20 20 21 21 19 17 14 12 11 11 10 11 15 13 8 9 11 11 11 11 11 14 16 15 17 21 17 12 15 20 21 20 22 24 24 22 20 18 15 13 11 11 10 10 8 7 7 7 6 4 1
17 18 18 17 16 15 15 15 16 17 18 19 19 20 21 21 20 20 20 20 19 19 18 16 16 16 16 14 11 9 8 9 10 10 10 9 8 7 8 9 10 10 11 14 17 16 13 15 18 18 15 15 16 16 19 24 25 24 23 20 18 15 12 10 10 9 9 9 8 6 5 4 4 4
14 14 14 13 12 12 13 14 15 16 16 16 16 17 17 17 16 16 16 16 15 15 13 12 12 12 11 9 6 6 7 7 6 6 8 9 11 12 16 21 22 19 19 19 18 17 16 17 18 19 18 16 14 15 20 23 24 23 21 18 16 14 12 11 9 8 6 7 7 6 6 7 7 7
10 9 8 8 8 9 10 12 13 13 13 13 12 12 12 11 11 10 10 9 10 11 11 11 10 9 8 7 7 7 7 8 8 9 11 14 18 21 25 29 29 25 22 20 18 18 18 17 16 16 16 16 17 18 19 20 21 21 19 16 13 11 10 9 8 7 5 3 4 4 6 8 8 8
6 6 6 7 8 9 9 9 9 8 7 6 4 4 5 6 7 7 6 6 6 8 9 10 10 11 10 10 10 10 11 13 14 14 16 20 25 28 31 32 31 28 25 23 22 21 19 17 16 14 13 15 17 18 19 18 18 18 17 15 11 8 7 6 6 6 5 2 0 2 5 7 6 6
7 6 6 6 7 6 5 4 4 4 5 6 7 8 8 9 10 10 9 9 9 10 11 13 14 15 14 15 14 14 15 17 17 18 22 27 30 30 31 31 31 29 27 25 24 22 20 18 16 14 13 13 14 15 16 17 17 15 13 11 10 9 7 6 5 4 4 4 4 5 6 5 4 3
9 8 7 7 7 8 8 9 11 12 13 14 15 15 15 15 14 13 12 13 13 15 17 18 18 17 17 17 16 16 17 20 22 24 26 28 29 28 27 29 28 26 25 24 22 21 21 19 17 15 14 13 14 14 13 12 12 12 10 7 7 7 6 5 5 4 3 5 6 7 7 6 4 3
9 10 11 12 13 14 15 16 18 19 20 21 20 19 18 16 15 15 17 18 20 22 21 20 18 16 15 15 16 16 19 23 26 27 26 24 22 21 21 24 25 23 22 22 21 21 21 19 18 17 15 14 15 15 13 10 8 7 8 8 7 5 5 6 5 3 4 7 9 9 8 5 3 2
8 9 11 13 14 15 17 18 19 20 21 22 21 20 20 19 19 20 22 23 22 19 17 16 16 15 15 15 16 17 21 25 26 25 23 19 16 15 17 20 21 20 20 20 19 19 18 17 17 16 16 15 15 14 13 12 9 6 5 6 7 6 6 6 5 4 5 8 10 10 9 6 3 2
6 8 11 13 14 15 17 18 19 19 20 20 19 20 20 21 22 22 20 18 15 13 12 13 14 15 15 16 17 17 20 23 23 22 19 16 14 13 15 18 19 19 19 17 16 15 14 13 12 12 13 14 15 14 13 13 11 8 6 6 6 8 8 7 6 6 7 8 9 10 9 7 5 3
9 11 13 14 15 16 18 19 20 21 21 20 19 19 19 19 19 18 16 13 11 11 11 11 13 15 15 15 16 18 19 19 19 18 16 14 12 11 14 17 18 18 18 16 14 13 11 9 9 9 9 10 12 13 12 11 11 10 8 7 7 8 9 7 6 7 9 9 9 9 8 7 6 5
13 15 15 15 15 16 18 19 20 20 20 19 18 18 17 17 16 15 14 13 12 11 10 10 12 13 14 14 15 16 16 16 16 15 13 11 9 9 12 16 18 18 17 15 14 13 11 9 9 8 6 5 5 6 6 7 8 8 8 7 7 8 7 6 6 8 10 10 9 9 9 8 7 7
13 13 14 14 14 14 15 17 17 17 17 16 15 15 15 14 14 13 12 12 11 11 10 10 11 11 12 12 13 13 14 14 13 12 11 9 8 8 10 13 17 18 17 16 16 15 14 11 9 8 7 5 5 3 3 5 6 6 7 8 8 7 7 6 6 8 10 10 9 8 9 9 8 7
11 11 11 12 12 13 14 15 15 14 14 13 13 13 12 12 11 11 10 9 9 10 10 10 10 11 11 11 12 12 12 12 11 10 9 8 8 9 10 13 15 16 16 17 17 16 14 11 9 9 9 8 6 5 6 7 8 8 8 8 7 7 8 7 7 7 9 9 9 9 10 10 9 9
10 10 9 9 10 11 13 13 12 11 10 10 11 10 9 8 7 7 7 6 7 9 10 10 9 10 10 10 11 10 9 9 9 8 8 8 9 10 11 12 14 16 16 16 16 15 13 12 11 10 10 8 6 6 7 7 7 7 8 8 7 5 5 6 6 5 5 7 9 10 11 12 12 11
9 7 7 8 7 7 9 9 9 8 7 7 7 7 6 5 5 5 6 6 6 8 9 9 9 9 9 9 9 8 8 8 8 7 7 8 10 10 10 10 11 13 15 15 15 15 13 11 10 9 8 7 6 6 5 6 7 7 7 8 8 6 5 5 5 4 2 2 2 3 3 5 6 5
7 6 6 7 7 6 5 5 5 4 4 4 6 7 6 5 4 5 6 7 8 9 9 8 9 9 9 8 9 9 8 8 7 5 6 9 9 7 8 9 10 13 14 13 13 12 11 10 9 8 7 6 6 5 5 7 8 8 7 8 8 6 4 4 5 3 2 3 3 3 3 3 3 4
8 8 7 7 7 6 6 5 5 5 4 5 7 9 9 7 6 6 7 9 10 11 10 10 10 10 9 9 9 9 9 9 7 6 7 11 10 7 8 9 10 11 13 12 11 11 10 11 11 10 8 7 7 6 6 7 9 8 7 9 8 6 4 4 4 3 2 3 4 4 2 2 2 2
Wind_Direction
237 250 260 260 256 260 273 277 281 290 295 299 299 301 310 313 313 316 322 335 346 350 1 4 347 337 344 43 93 103 116 138 148 148 148 150 148 138 128 124 120 113 110 112 113 116 133 174 193 202 208 211 218 228 239 240 237 237 228 211 199 199 215 233 235 236 238 236 236 234 232 232 231 233
237 245 254 257 253 253 262 271 275 279 283 290 292 291 296 305 310 308 308 318 334 347 353 355 350 331 234 171 66 76 103 142 159 162 171 183 184 177 166 155 145 136 134 137 130 119 121 150 177 191 199 200 207 221 227 220 216 215 204 196 198 208 230 238 237 239 240 239 237 233 230 231 231 232
236 242 252 259 256 251 255 263 268 269 273 278 283 287 289 296 306 304 299 303 313 331 338 337 339 302 255 279 310 19 115 148 158 163 182 207 223 225 218 204 193 177 165 164 159 149 145 154 176 198 207 208 213 226 229 211 198 194 201 210 213 220 233 240 240 240 240 241 240 236 233 234 234 236
238 242 250 256 252 247 252 255 258 265 269 268 270 280 282 283 294 297 291 291 296 308 324 322 311 275 271 280 282 273 255 203 169 177 197 217 233 243 250 253 245 236 235 215 204 203 195 193 205 222 231 226 226 235 235 219 198 186 203 222 226 227 233 238 239 240 239 241 240 239 239 237 237 240
239 243 248 249 242 238 247 251 252 257 260 258 261 273 278 281 292 292 283 282 286 285 300 308 301 283 268 269 274 276 275 266 245 239 239 242 244 244 252 259 256 256 253 238 233 248 251 238 232 235 241 251 261 267 258 247 238 208 203 215 225 230 232 233 238 242 244 246 245 242 243 242 241 243
235 237 245 247 239 235 242 248 247 249 252 256 264 271 278 286 290 286 274 271 277 276 279 291 291 283 269 266 275 280 275 269 263 260 265 269 248 228 231 240 246 251 251 246 241 245 257 263 272 280 267 257 264 273 274 273 274 257 230 224 230 235 236 236 241 246 245 246 247 244 244 243 242 245
230 228 238 246 244 240 241 243 245 248 251 258 264 267 275 285 287 281 269 262 267 271 270 275 278 277 273 273 280 281 269 258 259 260 265 265 241 230 240 247 254 256 253 253 246 238 252 259 266 292 287 271 265 267 273 278 280 279 268 252 244 245 245 243 245 248 247 244 243 242 242 243 244 247
237 234 238 246 251 248 243 242 245 250 250 253 260 267 274 280 283 283 272 260 259 264 265 264 264 268 272 274 276 279 270 261 262 264 266 262 246 243 252 259 268 270 265 262 254 244 256 261 258 263 267 261 252 246 257 275 275 273 272 267 259 255 251 249 247 247 247 245 244 243 243 244 247 250
240 239 245 254 260 256 245 240 242 244 243 247 258 266 272 276 279 279 272 258 254 258 262 263 264 268 273 275 275 274 271 266 265 260 254 254 251 252 261 267 272 276 273 266 260 252 254 257 254 257 261 262 257 248 244 262 268 265 265 265 263 260 256 253 250 248 247 247 246 246 247 248 249 252
239 239 249 257 262 257 245 238 237 237 241 251 257 260 265 271 274 275 272 261 253 253 255 258 264 270 274 278 279 276 273 270 266 259 252 250 249 252 263 272 273 274 272 266 264 261 256 254 255 259 262 262 263 261 256 256 256 257 265 265 259 258 257 251 247 246 246 245 246 249 255 259 262 263
246 245 250 253 254 254 250 244 241 242 246 250 252 255 260 264 268 274 276 270 261 257 255 253 258 269 275 277 278 276 275 269 259 254 253 253 251 252 262 274 276 274 273 270 265 258 255 258 259 260 263 260 256 257 259 259 256 254 263 266 261 259 261 256 251 249 246 244 246 248 253 262 270 271
249 249 252 254 254 255 254 250 247 248 249 248 249 253 256 259 262 267 270 270 267 263 258 254 255 264 271 274 274 270 268 264 259 257 257 256 258 260 266 276 277 272 274 277 275 268 265 263 255 250 256 257 252 254 260 264 263 261 267 272 268 262 263 263 262 262 258 252 249 244 242 247 255 257
246 246 250 258 262 259 253 248 249 252 254 254 255 257 259 261 261 261 261 264 266 265 259 254 255 259 262 267 271 269 269 270 270 268 263 257 260 264 268 273 274 272 275 279 282 285 282 267 250 243 251 254 249 254 262 264 262 263 268 271 266 258 254 255 257 262 262 254 243 231 224 226 230 235
245 244 246 253 259 258 251 249 252 255 258 259 258 259 261 262 258 254 252 254 260 264 261 255 256 260 262 267 271 273 276 273 268 268 267 262 260 262 261 261 263 266 269 271 275 281 279 264 256 261 270 268 254 248 258 262 258 255 256 255 247 235 229 233 235 233 228 216 199 185 187 195 194 191
244 244 243 246 249 251 251 251 250 252 256 257 257 258 261 261 259 254 251 253 257 262 263 258 255 257 263 268 270 272 272 266 262 265 269 267 264 263 259 259 263 264 264 263 265 268 265 256 253 262 274 273 256 244 245 249 246 242 239 233 220 205 200 201 193 172 152 138 129 122 117 115 116 114
244 243 242 243 246 248 251 253 252 250 250 251 252 255 258 260 260 257 256 258 260 262 264 262 259 260 266 269 266 266 267 264 262 264 266 268 269 267 265 267 270 270 265 260 258 260 261 253 247 256 266 258 245 237 229 224 219 213 206 196 187 182 177 169 159 148 135 123 116 115 110 102 94 92
245 245 244 243 244 246 248 252 255 254 253 253 253 253 253 254 253 254 257 260 262 266 266 265 263 265 267 267 263 262 267 268 266 266 268 270 271 270 270 272 274 273 269 262 257 255 253 246 241 244 242 229 219 210 197 184 175 171 169 166 161 159 158 154 148 146 142 137 131 125 117 104 101 118
245 246 245 244 245 246 248 250 253 256 258 259 258 255 253 252 252 254 256 259 263 267 267 266 266 265 264 264 263 263 265 266 267 270 273 275 275 274 272 271 269 267 264 262 256 249 241 234 230 226 216 203 195 187 175 160 151 148 145 141 137 132 129 128 125 119 123 135 138 130 130 131 133 135
244 245 246 246 247 248 249 250 252 255 256 256 258 259 257 255 255 256 259 262 265 265 266 266 266 265 263 263 261 260 262 264 266 268 271 272 273 271 267 264 259 255 254 254 248 239 231 222 216 209 199 192 185 175 160 145 137 131 126 122 116 106 98 101 103 95 96 112 125 129 133 136 137 134
241 241 244 248 249 248 249 249 250 252 253 253 256 259 258 256 256 258 261 264 264 262 264 265 265 265 264 262 261 260 260 263 265 266 266 263 261 260 258 257 255 250 247 245 239 234 225 211 205 198 188 183 177 164 150 140 135 131 126 121 115 114 113 109 108 107 110 117 122 125 127 128 129 126
244 243 244 248 250 249 249 248 247 247 250 254 257 260 261 261 261 262 262 263 262 262 263 263 264 266 266 266 268 269 267 266 263 261 261 260 259 257 253 253 253 247 243 239 234 230 220 204 197 190 179 172 166 156 147 142 138 133 128 125 123 122 119 116 116 117 118 118 118 118 118 117 118 120
247 246 245 247 249 250 250 249 247 247 252 257 259 260 261 262 262 263 262 261 261 261 261 262 263 264 266 268 271 271 270 267 260 257 260 262 262 258 253 254 250 239 234 234 230 222 211 196 189 180 166 157 155 153 149 148 145 138 134 131 127 124 123 123 123 120 118 115 111 108 106 104 106 109
244 241 243 246 249 251 252 251 251 252 256 259 259 260 260 261 262 262 261 259 259 259 260 261 262 262 264 268 271 272 270 266 264 266 266 264 262 259 256 254 246 232 227 229 224 215 199 183 175 168 157 149 150 152 151 150 146 140 138 138 135 134 134 131 127 124 122 119 114 109 103 96 94 94
245 245 248 251 252 253 255 255 256 257 258 258 259 259 259 260 259 258 257 257 258 258 259 261 262 264 267 271 275 277 276 274 274 272 269 267 267 264 259 250 238 231 231 228 221 212 191 173 167 164 158 151 146 146 145 143 141 138 139 140 140 142 143 140 137 134 130 127 126 124 117 104 91 79
247 246 248 249 250 250 251 253 254 255 255 255 257 258 258 258 259 258 258 259 260 262 263 265 267 270 272 274 276 276 277 280 280 273 269 269 266 258 251 243 234 230 227 220 214 208 189 173 168 164 162 159 153 148 144 140 139 139 140 142 143 145 146 146 149 150 144 137 131 133 139 130 105 80
248 244 241 241 243 245 247 250 252 255 257 256 256 257 257 258 260 263 263 263 265 267 269 270 271 273 275 277 279 281 281 285 286 278 265 258 255 250 245 242 241 236 225 213 211 208 196 182 174 169 172 177 165 154 147 144 144 145 146 146 142 139 138 139 143 146 150 149 138 135 154 158 137 98
251 248 246 248 251 254 256 257 258 259 259 255 250 250 252 255 260 265 266 265 264 266 267 267 268 274 278 280 282 282 281 282 285 280 257 245 250 257 251 244 243 242 238 230 218 208 198 188 182 183 192 183 163 152 149 150 152 152 151 147 141 137 133 127 119 110 110 127 144 153 165 171 168 140
252 255 257 260 263 266 267 267 266 261 257 252 249 251 255 259 263 265 263 261 261 263 265 265 264 267 270 272 272 271 271 273 270 263 250 241 239 245 245 236 227 226 232 220 192 183 187 190 183 178 181 173 159 153 155 157 155 153 152 150 145 141 134 124 113 101 90 95 121 144 156 168 176 168
250 255 258 260 264 269 273 276 277 273 269 264 260 260 262 262 261 258 255 253 255 258 260 259 256 254 255 257 260 256 251 253 250 242 235 223 199 182 174 158 146 150 155 153 153 156 167 177 165 151 149 158 157 153 156 156 155 154 155 153 148 145 143 137 127 115 96 83 88 105 117 122 123 107
243 246 247 251 258 266 271 274 274 272 268 264 260 258 258 258 256 253 249 248 249 249 247 242 238 238 238 234 224 211 207 210 214 209 192 167 151 151 146 135 128 131 136 137 140 145 151 154 146 139 142 148 153 156 156 155 155 156 155 153 150 150 155 156 146 132 109 76 63 77 98 102 102 101
230 232 234 241 248 253 255 256 258 257 255 255 254 251 249 246 241 237 234 234 233 230 223 214 204 196 190 179 167 162 163 157 147 148 152 144 137 138 136 130 127 130 135 137 140 143 144 139 133 132 135 139 150 159 159 157 157 156 156 155 153 151 155 159 152 141 131 88 44 67 108 110 103 101
187 197 205 215 224 231 238 243 246 244 240 240 235 221 209 198 188 180 174 174 181 184 179 168 158 153 150 145 141 140 140 138 135 137 140 137 135 135 134 130 131 134 136 137 138 137 133 128 126 128 130 135 145 154 157 158 159 157 155 157 156 152 153 156 151 143 148 168 294 121 135 129 114 104
146 163 179 191 197 202 204 196 174 150 138 128 120 120 125 131 133 133 134 136 139 143 144 141 138 136 134 129 128 130 132 133 134 139 140 137 135 135 134 133 134 136 135 135 135 135 134 132 131 131 132 139 148 153 155 158 161 161 159 154 154 159 161 160 161 165 180 217 222 195 176 164 145 129
112 119 126 131 130 128 126 124 121 117 115 114 112 111 111 113 117 122 127 129 132 133 131 127 125 124 124 125 129 132 134 135 138 140 138 136 135 137 139 138 138 138 136 136 138 140 141 142 142 141 143 151 159 162 162 160 161 164 166 164 161 167 172 172 177 191 216 223 214 205 199 189 171 169
94 98 107 110 110 111 113 113 111 109 107 105 105 105 108 111 117 124 128 128 127 124 119 114 113 116 121 128 133 136 137 138 139 137 135 135 137 143 146 145 142 140 139 141 145 147 147 148 149 151 155 161 165 168 172 176 172 169 175 181 184 193 198 190 187 201 214 209 208 211 214 205 187 184
93 94 105 110 110 111 111 110 108 107 105 103 103 104 107 113 119 123 124 124 122 115 107 104 107 113 121 127 131 137 140 141 140 138 136 135 137 143 148 147 143 141 141 142 143 146 150 153 155 159 164 170 173 174 177 183 189 198 201 194 195 203 206 199 195 200 204 204 207 213 218 218 221 225
107 107 114 116 114 114 113 111 109 108 108 109 110 110 112 116 120 121 122 122 117 106 99 100 105 112 120 124 126 133 141 144 142 139 137 134 134 139 146 147 145 145 144 141 140 145 152 157 164 170 173 176 181 185 184 182 185 195 214 219 211 206 205 208 208 201 197 201 205 209 215 222 227 226
117 114 114 117 119 120 120 118 115 113 112 112 113 115 116 119 122 123 124 123 117 108 103 103 109 118 124 127 128 132 140 146 145 142 140 140 140 144 150 153 154 155 155 153 151 154 157 160 168 177 184 188 193 195 194 190 190 197 209 222 225 217 212 216 219 210 204 208 213 215 222 229 231 232
110 105 103 108 118 123 124 121 119 117 114 112 112 112 113 116 118 119 121 121 119 115 114 116 120 124 128 133 136 138 143 148 151 152 154 155 155 156 159 161 164 167 171 169 164 163 168 173 176 185 198 201 195 195 199 203 206 207 206 210 222 229 228 233 240 231 222 222 229 236 241 245 248 250
109 103 99 101 113 125 128 126 125 125 122 120 119 119 118 118 118 119 121 124 126 128 131 133 137 140 141 145 149 151 152 155 158 161 164 163 160 164 168 169 170 174 178 180 176 174 177 182 187 197 197 178 155 161 201 212 211 208 208 213 224 234 240 251 259 246 235 236 248 256 257 256 255 257
122 117 110 104 112 128 138 138 136 137 136 134 132 131 128 126 125 124 126 127 131 140 145 149 156 163 164 165 166 165 163 164 166 169 172 169 165 167 171 174 177 180 183 187 188 185 183 186 193 196 190 179 173 187 200 202 203 205 207 215 224 233 240 245 243 236 237 247 257 260 257 257 257 260
138 131 125 119 119 132 144 147 145 145 146 144 139 133 129 129 131 132 134 132 135 144 146 146 150 159 163 165 167 168 169 170 167 166 172 173 165 161 165 175 184 186 186 189 192 190 190 193 194 190 185 184 193 204 200 196 197 196 194 197 200 204 215 215 205 203 222 243 254 257 258 258 260 263
152 146 143 146 145 145 149 154 154 154 155 155 151 146 144 147 151 158 167 168 159 154 154 151 149 150 152 158 166 174 178 174 166 161 167 168 159 149 148 158 171 176 179 185 190 192 194 192 187 186 191 200 214 225 217 203 199 196 196 193 184 170 167 175 178 176 170 186 216 239 253 251 246 242
177 178 173 174 178 176 173 177 184 185 183 179 178 180 184 185 185 191 193 184 173 168 166 164 161 161 163 168 175 181 182 178 173 175 177 174 167 152 143 148 154 158 164 173 181 185 188 189 189 197 211 222 233 247 241 222 215 215 214 205 191 178 175 179 182 179 144 129 145 139 115 116 136 137
200 204 200 195 199 205 210 219 229 228 220 209 200 200 205 211 217 218 205 188 181 181 182 179 177 179 181 181 181 184 184 181 184 192 187 182 182 176 164 165 166 163 167 176 184 186 190 198 206 214 222 228 237 249 243 225 218 216 213 207 198 193 190 181 181 193 165 146 168 182 176 179 193 198